{"data":{"norad_id":56130,"epoch":"2026-09-20T21:18:17.341344Z","epoch_age_seconds":75112,"freshness":"FRESH","line1":"1 56130U 23046AQ  26263.88770071  .00001048  00000+0  47600-4 0  9990","line2":"2 56130  43.0038 124.5721 0002240 260.0170 100.0429 15.27585922192050","mean_motion":15.27585922,"eccentricity":0.000224,"inclination_deg":43.0038,"raan_deg":124.5721,"arg_perigee_deg":260.017,"mean_anomaly_deg":100.0429,"bstar":4.76e-5,"rev_number":19205,"period_min":94.266383269274,"perigee_km":481.49446178509,"apogee_km":484.56826521193,"semimajor_km":6861.1683634985,"source":"CELESTRAK","updated_at":"2026-09-21T09:00:33.387884Z"}}